Wind_Speed
28 29 29 30 28 27 26 25 25 24 23 23 23 22 21 20 20 19 19 20 21 21 20 20 19 18 17 17 15 14 14 13 12 12 12 12 13 14 13 13 12 12
25 27 27 28 27 26 25 25 24 22 22 22 22 21 21 19 19 19 19 20 20 20 20 19 19 18 18 17 16 14 13 12 11 11 11 11 11 11 12 11 11 11
24 26 26 27 27 25 24 24 23 21 21 22 21 20 20 19 19 18 18 18 18 18 19 19 19 18 18 17 16 15 13 11 10 11 11 10 10 11 11 11 11 11
23 24 27 27 26 23 22 22 20 20 21 21 20 20 20 19 18 17 17 17 17 17 18 19 19 18 18 17 16 15 14 12 10 10 10 10 10 10 10 11 11 11
22 23 25 25 24 23 22 20 19 20 20 19 20 20 20 19 17 17 17 16 16 16 18 19 19 19 18 16 15 16 15 13 11 10 10 9 9 9 9 10 10 10
22 22 23 22 24 24 22 20 20 19 18 18 19 19 18 18 16 15 15 15 16 16 18 19 18 18 17 16 15 15 15 14 12 12 11 10 9 9 9 9 9 9
20 22 22 23 25 23 20 19 19 18 17 17 18 18 17 16 16 15 15 15 16 17 18 19 18 18 17 16 15 15 15 14 14 13 13 12 11 10 10 10 9 10
22 22 23 24 25 22 19 19 19 18 17 18 18 17 16 16 16 16 15 15 16 17 19 19 19 18 17 16 15 15 15 15 15 15 15 14 14 13 12 12 12 12
24 23 24 25 24 22 21 20 19 18 18 19 18 16 16 17 18 18 18 17 18 19 20 20 20 19 18 17 17 16 16 16 16 16 16 16 16 15 14 14 14 14
27 26 25 25 24 23 21 20 19 19 20 19 17 16 16 17 17 18 18 18 18 19 19 20 20 19 18 18 18 18 18 18 18 18 18 18 17 17 17 16 16 17
27 26 23 22 22 21 20 19 19 20 20 19 17 16 16 17 17 17 17 16 16 17 17 17 18 18 18 18 19 19 19 19 20 20 20 20 19 19 18 18 19 19
26 25 23 21 22 22 20 18 19 19 20 19 18 18 18 18 18 17 16 15 15 15 15 16 17 18 18 19 20 20 21 21 21 21 22 22 22 21 21 20 21 21
24 25 25 24 24 23 20 19 20 20 20 20 20 19 19 20 20 19 18 17 16 16 16 17 19 20 21 21 21 22 23 23 23 23 23 23 23 23 23 22 22 22
23 24 24 24 23 22 21 21 21 21 21 21 21 21 22 22 23 22 21 19 19 18 18 19 20 22 23 23 23 24 24 25 25 24 24 23 23 23 23 23 22 22
24 24 25 25 23 22 22 20 19 20 21 21 22 23 23 24 25 25 24 23 21 21 20 20 21 21 22 23 23 24 25 25 25 25 24 23 23 23 23 23 22 22
26 25 26 25 24 24 24 22 21 20 20 21 22 23 23 24 25 25 24 24 24 24 23 22 23 22 22 22 23 23 24 24 24 24 24 24 24 24 25 24 24 24
27 26 25 24 25 25 25 24 23 21 21 21 22 23 23 23 23 23 23 23 24 25 25 24 24 23 22 21 21 22 24 24 24 24 25 25 26 26 27 27 27 26
27 26 25 25 25 25 26 26 25 23 21 21 23 24 24 24 25 25 24 23 23 24 25 26 25 24 22 21 21 22 24 25 25 25 26 27 27 28 28 28 29 29
27 26 26 24 24 25 26 26 25 25 24 24 26 26 25 26 26 25 24 23 21 21 23 25 26 24 22 21 21 23 24 26 27 27 27 28 28 28 28 29 30 31
27 27 26 25 25 26 26 26 26 26 26 26 27 25 24 23 23 22 22 21 21 20 21 24 26 26 23 22 22 23 25 26 28 28 28 28 28 28 28 29 30 31
29 30 29 28 28 28 29 29 28 27 25 24 24 24 23 23 22 22 22 21 20 20 21 24 26 27 25 24 23 23 24 26 28 29 29 29 29 29 30 31 31 32
30 30 30 29 28 28 29 29 27 25 24 23 22 22 23 23 23 23 23 22 21 20 21 23 26 27 27 26 25 24 25 27 28 30 30 31 31 32 33 34 34 35
27 27 27 26 26 26 27 26 25 25 25 24 23 23 24 25 25 25 24 24 23 23 23 24 26 28 29 28 28 28 28 29 30 32 33 34 35 35 36 37 37 37
26 26 26 26 25 25 26 26 27 27 27 27 26 26 26 27 27 27 27 27 26 26 27 27 28 30 31 31 32 32 32 33 34 35 36 37 38 39 39 39 39 40
28 28 28 28 29 29 29 30 30 30 30 30 30 30 29 30 30 30 30 29 29 29 30 30 31 33 34 35 35 36 36 36 37 38 39 40 40 41 41 42 42 42
30 31 31 32 32 33 33 32 32 32 32 32 32 31 31 31 31 31 30 30 30 30 31 32 33 34 36 37 38 38 38 39 39 39 39 40 41 41 42 43 44 46
Wind_Direction
232 234 236 236 237 237 238 239 239 239 239 239 241 242 244 246 249 248 246 248 250 250 252 254 252 250 251 255 259 263 267 271 273 272 269 265 263 262 260 259 259 259
239 237 239 240 240 241 242 243 243 241 239 240 241 243 245 246 246 246 246 246 246 246 249 252 250 249 251 255 256 258 263 270 274 273 269 264 261 259 259 259 259 260
239 237 238 240 241 243 247 248 247 243 241 242 244 246 247 246 243 242 244 243 241 243 247 248 247 248 251 255 256 256 259 266 274 275 270 265 261 260 261 263 263 260
239 239 238 238 239 242 246 248 246 242 242 244 246 248 248 245 242 241 241 239 238 241 246 246 245 247 250 254 255 255 257 263 272 275 271 265 260 259 260 262 264 263
240 242 239 237 239 241 242 243 242 241 243 245 245 244 244 244 243 240 236 233 234 240 244 244 243 244 247 250 253 254 255 260 269 274 272 266 260 257 257 258 260 263
239 242 237 233 236 241 242 242 242 242 242 241 238 237 238 242 241 234 229 228 232 238 242 242 242 242 244 248 251 253 253 256 263 269 271 268 263 260 259 261 263 269
237 236 231 229 234 241 242 240 239 239 235 230 229 231 235 240 240 232 226 227 232 237 240 242 241 241 243 246 251 254 254 254 258 265 270 270 268 268 269 272 275 280
235 232 228 229 234 238 234 230 233 232 226 222 224 231 239 245 246 243 237 234 235 239 241 242 242 241 243 245 250 255 256 256 257 261 267 270 271 272 275 278 280 281
232 227 226 228 230 230 225 224 229 227 220 217 221 233 244 249 251 249 247 243 241 241 242 243 243 242 243 246 250 254 257 258 258 260 263 267 271 273 274 276 278 279
228 224 225 228 228 227 224 225 228 223 217 215 220 231 240 246 249 248 246 243 241 240 241 242 243 243 245 247 250 252 255 258 259 259 261 263 267 270 272 274 276 278
227 226 229 232 232 229 225 226 226 220 217 216 218 227 236 243 246 245 242 239 237 237 237 240 243 245 248 250 251 253 253 255 257 258 259 260 262 265 268 271 274 276
230 229 229 230 230 227 221 223 224 221 220 219 220 229 237 241 242 241 238 233 231 233 236 240 245 248 250 251 253 255 255 255 257 258 259 259 260 261 264 267 271 274
229 229 229 229 229 225 219 219 222 222 224 225 227 233 238 240 240 240 237 234 236 240 244 248 251 252 252 251 251 253 254 255 256 258 259 259 260 261 263 266 269 271
222 226 231 233 230 224 220 221 224 226 229 232 234 238 240 241 241 242 241 242 244 248 251 255 256 255 254 252 251 251 251 252 253 254 256 257 258 260 263 265 267 267
222 227 231 232 228 224 223 225 228 231 235 237 239 240 240 240 242 245 248 250 250 251 254 257 258 257 255 253 252 251 250 250 251 252 253 254 255 259 262 264 264 263
222 228 231 229 227 226 226 228 233 237 240 241 240 240 240 241 243 246 250 253 254 254 255 257 257 256 255 253 251 251 250 250 250 249 250 251 255 258 260 260 259 258
224 228 232 231 228 228 229 232 237 242 242 240 239 240 241 241 241 245 252 257 259 256 252 252 254 253 253 254 252 251 250 249 249 249 250 253 257 260 261 261 261 261
228 231 234 233 230 230 233 236 240 242 241 240 241 242 244 245 247 251 254 256 259 257 249 246 249 251 253 256 257 256 253 250 249 250 253 257 261 264 265 267 268 268
230 229 231 232 232 233 237 241 244 244 242 243 245 247 250 252 253 253 250 248 255 257 251 247 249 251 254 259 263 262 258 254 251 252 255 259 263 267 269 270 271 271
227 226 229 233 235 237 240 243 245 246 244 243 246 248 252 253 251 249 245 245 250 254 253 253 252 251 253 260 266 267 263 258 256 256 257 259 263 266 269 271 272 272
227 226 230 236 238 238 239 242 245 248 248 248 249 250 251 250 247 245 244 245 249 252 254 254 253 251 253 259 265 268 267 265 262 261 261 262 265 268 270 272 273 272
230 231 234 238 240 239 241 243 246 248 249 249 250 250 249 247 246 245 245 247 252 256 256 253 251 251 254 259 263 265 267 266 264 264 264 266 269 271 273 274 274 273
234 235 237 239 240 240 241 242 242 243 246 248 248 247 246 245 245 245 246 249 255 258 258 254 250 250 254 259 264 266 267 266 265 263 264 266 268 271 272 273 273 273
235 236 238 240 241 242 242 241 242 244 248 249 248 247 246 246 247 248 250 254 258 260 260 258 256 255 257 261 265 267 267 267 266 265 265 266 268 270 271 272 273 272
237 238 240 241 243 245 245 246 247 248 248 247 246 246 246 247 249 251 254 258 260 261 261 261 260 260 261 263 265 266 266 266 266 267 267 268 269 271 272 273 273 273
241 242 243 243 245 246 247 248 248 249 248 248 248 248 249 250 252 255 257 260 262 263 264 264 264 264 264 265 265 266 266 267 267 267 268 269 270 271 272 273 273 273
Height
5769 5769 5770 5771 5773 5775 5776 5778 5779 5781 5782 5783 5784 5786 5787 5788 5789 5791 5792 5793 5793 5794 5794 5795 5796 5796 5797 5797 5798 5798 5798 5798 5798 5798 5798 5799 5799 5800 5801 5802 5802 5803
5770 5769 5770 5772 5773 5775 5776 5777 5778 5779 5780 5780 5782 5783 5784 5786 5787 5788 5790 5791 5791 5792 5793 5793 5794 5795 5795 5795 5796 5796 5796 5797 5797 5797 5797 5797 5798 5798 5799 5800 5801 5801
5768 5768 5769 5771 5772 5773 5775 5776 5777 5778 5778 5778 5780 5781 5782 5784 5785 5787 5788 5789 5789 5790 5791 5792 5793 5793 5793 5794 5794 5795 5795 5795 5795 5795 5795 5796 5797 5797 5798 5798 5799 5800
5765 5765 5766 5768 5770 5771 5773 5774 5775 5776 5776 5777 5778 5779 5780 5781 5783 5785 5786 5786 5787 5788 5789 5790 5791 5791 5792 5792 5793 5793 5794 5794 5794 5794 5794 5795 5795 5796 5796 5796 5797 5797
5762 5763 5764 5766 5768 5770 5771 5772 5773 5774 5774 5775 5776 5777 5777 5779 5781 5782 5783 5784 5785 5786 5787 5788 5789 5790 5790 5790 5791 5792 5792 5793 5793 5793 5793 5793 5794 5794 5795 5795 5795 5796
5761 5762 5763 5765 5767 5768 5769 5770 5771 5772 5773 5773 5774 5775 5776 5777 5778 5780 5781 5782 5783 5784 5785 5786 5787 5788 5788 5789 5789 5790 5790 5791 5791 5792 5792 5792 5793 5793 5793 5794 5794 5794
5759 5760 5761 5763 5765 5766 5767 5768 5769 5770 5771 5772 5772 5773 5774 5775 5776 5777 5779 5780 5781 5782 5783 5784 5785 5786 5786 5787 5787 5788 5788 5789 5790 5790 5791 5791 5791 5792 5792 5792 5792 5793
5756 5757 5759 5760 5762 5764 5765 5766 5767 5768 5769 5770 5771 5772 5772 5773 5774 5775 5777 5778 5779 5780 5781 5782 5783 5784 5784 5785 5785 5786 5787 5787 5788 5789 5789 5790 5790 5790 5791 5791 5791 5791
5753 5755 5756 5758 5759 5761 5762 5763 5764 5766 5767 5768 5769 5770 5770 5771 5772 5773 5774 5775 5776 5777 5778 5779 5780 5781 5782 5783 5783 5784 5784 5785 5786 5786 5787 5788 5788 5789 5789 5790 5790 5790
5750 5751 5753 5755 5757 5758 5760 5761 5762 5763 5764 5766 5767 5768 5769 5769 5770 5771 5772 5773 5774 5775 5776 5777 5778 5779 5780 5780 5781 5781 5782 5783 5783 5784 5785 5785 5786 5787 5787 5788 5788 5788
5748 5750 5752 5754 5756 5757 5758 5759 5760 5761 5762 5763 5765 5766 5767 5768 5768 5769 5769 5770 5771 5772 5773 5774 5775 5776 5777 5778 5778 5779 5779 5780 5781 5782 5782 5783 5784 5784 5785 5785 5786 5786
5746 5748 5750 5751 5752 5754 5755 5756 5757 5758 5760 5761 5763 5764 5765 5766 5766 5766 5767 5768 5769 5770 5771 5772 5773 5773 5774 5775 5776 5776 5777 5777 5778 5779 5779 5780 5781 5781 5782 5782 5783 5783
5743 5745 5747 5748 5749 5751 5753 5754 5755 5756 5758 5759 5761 5762 5763 5764 5764 5764 5765 5766 5767 5768 5769 5769 5770 5770 5771 5772 5773 5773 5774 5774 5775 5775 5776 5776 5777 5777 5778 5779 5779 5780
5742 5743 5745 5746 5748 5750 5751 5752 5753 5755 5756 5757 5759 5760 5761 5762 5762 5762 5763 5764 5765 5765 5766 5767 5767 5768 5768 5768 5769 5770 5770 5771 5771 5772 5772 5773 5773 5774 5774 5775 5775 5776
5741 5742 5743 5744 5746 5748 5749 5750 5752 5753 5754 5755 5757 5758 5758 5759 5759 5760 5761 5761 5762 5763 5764 5764 5765 5765 5765 5765 5766 5767 5767 5768 5768 5768 5769 5769 5770 5770 5771 5771 5772 5773
5738 5739 5740 5742 5744 5745 5746 5748 5749 5750 5752 5753 5754 5755 5756 5757 5757 5757 5758 5759 5759 5760 5761 5762 5762 5762 5763 5763 5763 5764 5764 5765 5765 5765 5766 5766 5766 5767 5767 5768 5768 5769
5736 5737 5738 5739 5741 5742 5744 5745 5747 5748 5749 5750 5751 5752 5753 5754 5755 5755 5755 5756 5756 5757 5758 5759 5759 5759 5760 5760 5760 5761 5761 5762 5762 5762 5763 5763 5763 5763 5764 5764 5765 5765
5734 5735 5737 5738 5739 5741 5742 5742 5744 5745 5746 5747 5748 5749 5750 5751 5752 5752 5753 5753 5753 5753 5754 5755 5756 5756 5757 5757 5757 5758 5758 5758 5759 5759 5760 5760 5760 5760 5761 5761 5761 5762
5732 5733 5734 5736 5737 5738 5739 5740 5741 5742 5743 5744 5745 5746 5747 5747 5748 5749 5749 5750 5750 5750 5751 5752 5753 5754 5754 5754 5755 5755 5755 5756 5756 5756 5756 5757 5757 5758 5758 5758 5758 5759
5730 5731 5732 5733 5735 5736 5736 5737 5738 5739 5740 5741 5741 5742 5743 5744 5744 5745 5746 5746 5747 5747 5748 5749 5750 5751 5751 5752 5752 5752 5753 5753 5753 5753 5754 5754 5754 5755 5755 5755 5755 5755
5727 5728 5729 5730 5731 5732 5733 5734 5735 5735 5736 5737 5738 5739 5740 5740 5741 5742 5742 5743 5744 5744 5745 5746 5747 5748 5748 5749 5749 5749 5750 5750 5750 5751 5751 5751 5751 5752 5752 5752 5752 5752
5723 5724 5725 5726 5728 5729 5730 5731 5732 5732 5733 5734 5735 5736 5737 5738 5738 5739 5740 5740 5741 5742 5742 5743 5744 5744 5745 5745 5746 5746 5747 5747 5747 5748 5748 5748 5748 5748 5748 5748 5748 5748
5720 5721 5722 5723 5725 5726 5727 5728 5729 5730 5730 5731 5732 5733 5734 5735 5735 5736 5737 5737 5738 5739 5739 5739 5740 5741 5741 5742 5742 5742 5743 5744 5744 5744 5744 5744 5744 5744 5744 5744 5744 5743
5717 5718 5719 5720 5721 5723 5724 5725 5726 5727 5727 5728 5729 5730 5731 5731 5732 5732 5733 5734 5735 5735 5735 5736 5737 5737 5738 5738 5738 5739 5739 5739 5740 5740 5740 5740 5740 5740 5739 5739 5739 5739
5714 5715 5716 5717 5718 5720 5721 5721 5722 5723 5724 5725 5725 5726 5727 5728 5728 5729 5730 5730 5731 5732 5732 5733 5733 5733 5734 5734 5734 5734 5735 5735 5735 5735 5735 5735 5735 5734 5734 5734 5734 5734
5711 5711 5713 5714 5715 5716 5717 5718 5718 5719 5720 5721 5721 5722 5723 5724 5725 5725 5726 5727 5727 5728 5728 5729 5729 5729 5730 5730 5730 5730 5730 5730 5730 5730 5730 5729 5729 5729 5729 5728 5728 5728